Location: Newark
(15.4608°S, 41.1635°W)
Time: 09:18:06
(UTC+00:00)

Transit 4A - Pass Details

Date: 06 March 2021
Orbit: 869 x 975 km, 66.8° (Epoch: 22 April)

Event Time Altitude Azimuth Distance (km) Brightness Sun altitude
Rises 22:35:18 0° 356° (N) 3,444 10.8 -22.3°
Reaches altitude 10° 22:37:55 10° 4° (N) 2,506 10.0 -22.9°
Enters shadow 22:39:02 16° 9° (N) 2,131 9.6 -23.2°
Maximum altitude 22:43:16 40° 72° (ENE) 1,267 - -24.2°
Drops below altitude 10° 22:48:39 10° 140° (SE) 2,531 - -25.4°
Sets 22:51:18 0° 147° (SSE) 3,483 - -26.0°
